Yellowstone Natl Park, WY

3:15 PM MST on February 23, 2017 (GMT -0700)
Yellowstone

Weather History for KP60 - October, 2012

Change the Weather History Date:

Saturday, October 20, 2012

  Actual Average Record
Temperature  
Mean Temperature 38 °F 34 °F  
Max Temperature 48 °F 46 °F 63 °F (2003)
Min Temperature 28 °F 22 °F 14 °F (2007)
Degree Days  
Heating Degree Days 27 31  
Month to date heating degree days 547  
Since 1 July heating degree days 1682  
Cooling Degree Days 0 0  
Month to date cooling degree days 0  
Year to date cooling degree days 0  
Moisture  
Dew Point 28 °F    
Average Humidity 60    
Maximum Humidity 85    
Minimum Humidity 42    
Precipitation  
Precipitation 0.00 in 0.05 in 0.34 in (2004)
Month to date precipitation 0.81  
Year to date precipitation 16.18  
Sea Level Pressure  
Sea Level Pressure 29.71 in    
Wind  
Wind Speed 6 mph (West)    
Max Wind Speed 15 mph    
Max Gust Speed 32 mph    
T = Trace of Precipitation, MM = Missing Value Source: NWS Daily Summary

Daily Weather History Graph

Daily Weather History Graph

Search for Another Location

Airport or City:

Trip Planner

Search our weather history database for the weather conditions in past years. The results will help you decide how hot, cold, wet, or windy it might be!

Date:

Astronomy

Oct. 20, 2012 Rise Set
Actual Time 7:44 AM MDT 6:27 PM MDT
Civil Twilight 7:14 AM MDT 6:57 PM MDT
Nautical Twilight 6:40 AM MDT 7:31 PM MDT
Astronomical Twilight 6:06 AM MDT 8:05 PM MDT
Moon 1:29 PM MDT (10/20) 11:11 PM MDT (10/20)
Length of Visible Light 11h 43m
Length of Day
10h 43m
Waxing Crescent, 35% of the Moon is Illuminated
Oct 20
Waxing Crescent
Oct 21
First Quarter
Oct 29
Full
Nov 6
Last Quarter
Nov 13
New

Hourly Weather History & Observations

Time (MDT) Temp. Windchill Dew Point Humidity Pressure Visibility Wind Dir Wind Speed Gust Speed Precip Events Conditions
12:56 AM 28.0 °F 24.2 °F 24.1 °F 85% 29.89 in - NNW 3.5 mph - N/A   Unknown
1:56 AM 28.9 °F - 24.1 °F 82% 29.85 in - Calm Calm - N/A   Unknown
2:56 AM 32.0 °F - 27.0 °F 82% 29.81 in - Calm Calm - N/A   Unknown
3:56 AM 43.0 °F 38.8 °F 27.0 °F 53% 29.72 in - Variable 6.9 mph - N/A   Unknown
4:56 AM 43.0 °F 39.5 °F 25.0 °F 49% 29.71 in - West 5.8 mph - N/A   Unknown
5:56 AM 42.1 °F - 24.1 °F 49% 29.72 in - Calm Calm - N/A   Unknown
6:56 AM 45.0 °F 42.6 °F 23.0 °F 42% 29.70 in - Variable 4.6 mph - N/A   Unknown
7:56 AM 44.1 °F 40.1 °F 24.1 °F 45% 29.69 in - Variable 6.9 mph - N/A   Unknown
8:56 AM 44.1 °F 40.8 °F 27.0 °F 51% 29.68 in - Variable 5.8 mph - N/A   Unknown
9:56 AM 43.0 °F 38.8 °F 30.0 °F 60% 29.70 in - Variable 6.9 mph 18.4 mph N/A   Unknown
10:56 AM 43.0 °F 38.2 °F 30.9 °F 62% 29.74 in - West 8.1 mph 25.3 mph N/A   Unknown
11:56 AM 45.0 °F 40.1 °F 32.0 °F 60% 29.72 in - WSW 9.2 mph 21.9 mph N/A   Unknown
12:56 PM 45.0 °F 39.7 °F 34.0 °F 65% 29.71 in - WSW 10.4 mph 32.2 mph N/A   Unknown
1:56 PM 48.0 °F - 32.0 °F 54% 29.68 in - West 15.0 mph 28.8 mph N/A   Unknown
2:56 PM 46.9 °F - 33.1 °F 59% 29.67 in - West 10.4 mph 23.0 mph N/A   Unknown
3:56 PM 46.9 °F - 30.0 °F 52% 29.62 in - WSW 10.4 mph 28.8 mph N/A   Unknown
4:56 PM 45.0 °F 39.7 °F 28.9 °F 53% 29.64 in - WSW 10.4 mph 23.0 mph N/A   Unknown
5:56 PM 42.1 °F 36.6 °F 28.0 °F 58% 29.68 in - West 9.2 mph 19.6 mph N/A   Unknown
6:56 PM 41.0 °F 34.7 °F 27.0 °F 57% 29.67 in - WSW 10.4 mph 27.6 mph N/A   Unknown
7:56 PM 39.9 °F 36.7 °F 28.0 °F 63% 29.69 in - Variable 4.6 mph 20.7 mph N/A   Unknown
8:56 PM 39.0 °F 32.8 °F 27.0 °F 62% 29.69 in - West 9.2 mph 18.4 mph N/A   Unknown
9:56 PM 39.0 °F 32.3 °F 27.0 °F 62% 29.70 in - West 10.4 mph 24.2 mph N/A   Unknown
10:56 PM 37.9 °F 33.5 °F 27.0 °F 65% 29.71 in - Variable 5.8 mph - N/A   Unknown
11:56 PM 37.9 °F 35.5 °F 25.0 °F 60% 29.72 in - West 3.5 mph - N/A   Unknown